This is the latest recevied weather packets stored in our database for station/object CE3PA-5. If no packets are shown the sender has not sent any weather packets the latest 10 day(s).
| Time | Temp. | Humidity | Pressure | Rain* | Wind** | Luminosity | Snow |
|---|---|---|---|---|---|---|---|
| 1778233263 | -1.11° C | 24% | 754.1 hPa | - | - | - | - |
| 1778232363 | -1.11° C | 24% | 754.1 hPa | - | - | - | - |
| 1778231463 | -1.11° C | 24% | 753.8 hPa | - | - | - | - |
| 1778229662 | -1.11° C | 24% | 753.8 hPa | - | - | - | - |
| 1778228762 | -1.11° C | 24% | 753.7 hPa | - | - | - | - |
| 1778227862 | -1.11° C | 24% | 754 hPa | - | - | - | - |
| 1778226962 | -1.11° C | 24% | 754 hPa | - | - | - | - |
| 1778226062 | -1.11° C | 24% | 754.2 hPa | - | - | - | - |
| 1778225163 | -1.11° C | 25% | 754.5 hPa | - | - | - | - |
| 1778224261 | -0.56° C | 25% | 754.5 hPa | - | - | - | - |
| 1778223361 | -0.56° C | 25% | 754.6 hPa | - | - | - | - |
| 1778222461 | 0° C | 25% | 754.6 hPa | - | - | - | - |
| 1778221561 | 0.56° C | 25% | 754.6 hPa | - | - | - | - |
| 1778220661 | 0.56° C | 25% | 754.8 hPa | - | - | - | - |
| 1778219761 | 1.11° C | 25% | 754.8 hPa | - | - | - | - |
| 1778196366 | 5° C | 25% | 756.4 hPa | - | - | - | - |
| 1778181960 | 15.56° C | 22% | 755.9 hPa | - | - | - | - |
| 1778177460 | 17.22° C | 21% | 755.7 hPa | - | - | - | - |
| 1778173862 | 16.67° C | 21% | 756.3 hPa | - | - | - | - |
| 1778171162 | 15° C | 22% | 756.3 hPa | - | - | - | - |
| 1778170261 | 14.44° C | 22% | 756.5 hPa | - | - | - | - |
| 1778167562 | 11.67° C | 23% | 756.1 hPa | - | - | - | - |
| 1778165761 | 9.44° C | 23% | 756.3 hPa | - | - | - | - |
| 1778161260 | 5.56° C | 23% | 755.8 hPa | - | - | - | - |
| 1778160359 | 3.89° C | 24% | 755.7 hPa | - | - | - | - |
* Rain since midnight (hover to see other rain measurements)
** Current wind speed in m/s (hover to see current wind gust speed)